Overview Statistics Trail Chart Weather Telemetry Raw packets
 

This is the latest recevied weather packets stored in our database for station/object EA3AGY-13. If no packets are shown the sender has not sent any weather packets the latest 10 day(s).

<< 19 20 21 22 23 24 25 >>
Time Temp. Humidity Pressure Rain* Wind** Luminosity Snow
1787876070 16.11° C 39% 1016.5 hPa 0 mm - - -
1787875467 16.11° C 40% 1016.6 hPa 0 mm - - -
1787873660 16.11° C 41% 1016.9 hPa 0 mm - - -
1787872456 16.67° C 39% 1016.7 hPa 0 mm - - -
1787870648 16.11° C 41% 1016.9 hPa 0 mm - - -
1787870046 15.56° C 42% 1017.1 hPa 0 mm - - -
1787867637 15.56° C 37% 1016.8 hPa 0 mm - - -
1787865227 16.67° C 36% 1017.3 hPa 0 mm - - -
1787864026 17.78° C 37% 1017.1 hPa 0 mm - - -
1787854990 20.56° C 27% 1015.7 hPa 0 mm - - -
1787852573 22.22° C 18% 1015.4 hPa 0 mm - - -
1787849567 23.89° C 12% 1015.2 hPa 0 mm - - -
1787847758 26.67° C 12% 1015.2 hPa 0 mm - - -
1787846550 26.67° C 10% 1015.2 hPa 0 mm - - -
1787845345 26.67° C 8% 1015.2 hPa 0 mm - - -
1787842939 25.56° C 15% 1015.4 hPa 0 mm - - -
1787842335 25.56° C 20% 1015.4 hPa 0 mm - - -
1787840530 26.67° C 25% 1015.7 hPa 0 mm - - -
1787839322 24.44° C 20% 1015.8 hPa 0 mm - - -
1787838719 24.44° C 22% 1015.7 hPa 0 mm - - -
1787836310 23.89° C 22% 1015.7 hPa 0 mm - - -
1787835707 24.44° C 24% 1015.6 hPa 0 mm - - -
1787832697 23.33° C 24% 1015.6 hPa 0 mm - - -
1787832093 22.78° C 25% 1015.7 hPa 0 mm - - -
1787828480 22.22° C 34% 1016 hPa 0 mm - - -

* Rain since midnight (hover to see other rain measurements)
** Current wind speed in m/s (hover to see current wind gust speed)